Weather Roundup
Issued by NWS Springfield, MO

Home | Current Version | Previous Version | Text Only | Print | Product List | Glossary On
Versions: 1 2 3 4 5 6 7 8 9 10 11 12 13 14 15 16 17 18 19 20 21 22 23 24 25 26 27 28 29 30 31 32 33 34 35 36 37 38 39 40 41 42 43 44 45 46 47 48 49 50
000
NZUS99 KSGF 291507
HRRSGF

HOURLY WEATHER
NATIONAL WEATHER SERVICE SPRINGFIELD MO
1000 AM CDT MON MAY 29 2017

......SGF CWA......

CITY           SKY/WX    TMP DP  RH WIND       PRES   REMARKS
SPRINGFIELD    SUNNY     75  55  49 W13       30.03R
JOPLIN         SUNNY     76  59  55 W10       30.04R
WEST PLAINS    SUNNY     73  57  57 W9        30.05R
ROLLA          SUNNY     70  59  68 SW9       29.98R
OSAGE BEACH    SUNNY     72  59  63 SW8       30.00R
BRANSON        PTSUNNY   72  59  64 W5        30.07R

......SURROUNDING SGF CWA......

CITY           SKY/WX    TMP DP  RH WIND       PRES   REMARKS
CHANUTE        SUNNY     75  52  44 NW12      30.03R
PARSONS        SUNNY     76  52  43 W7        30.04R
COFFEYVILLE    SUNNY     75  57  53 NW8       30.04R
EMPORIA        SUNNY     72  51  47 NW9       30.03R
GROVE OK       SUNNY     73  59  60 W5        30.05R
ROGERS AR      SUNNY     73  62  68 SW8       30.08R
SILOAM SPRINGS SUNNY     73  59  60 SW6       30.07R
HARRISON AR    SUNNY     73  57  57 W10       30.07R
NEAR YELLVILLE SUNNY     72  57  60 CALM      30.03R

......KANSAS AND MISSOURI......

CITY           SKY/WX    TMP DP  RH WIND       PRES   REMARKS
KANSAS CTY INT MOSUNNY   71  52  50 NW10      29.98R
DOWNTOWN KC    SUNNY     72  52  49 NW10      29.97R
COLUMBIA       MOSUNNY   75  56  51 SW8       29.95R
SEDALIA        PTSUNNY   74  60  61 SW12      29.96R
ST JOSEPH      SUNNY     71  51  49 N15       29.98R
ST LOUIS       PTSUNNY   77  56  48 SW6       29.93F
SPIRIT OF STL  MOSUNNY   74  57  55 SW6       29.93S
KIRKSVILLE     CLOUDY    70  51  51 N7        29.94S
WICHITA        MOSUNNY   74  51  44 N12       30.05R
TOPEKA         SUNNY     71  54  54 NW8       30.01R
OLATHE         SUNNY     70  52  52 N15G22    29.99R

......TENNESSEE......

CITY           SKY/WX    TMP DP  RH WIND       PRES   REMARKS
MEMPHIS        CLOUDY    80  65  59 NE7       30.02R
NASHVILLE      CLOUDY    74  65  73 CALM      30.02R

......ARKANSAS.......

CITY           SKY/WX    TMP DP  RH WIND       PRES   REMARKS
FAYETTEVILLE   SUNNY     73  62  68 SW6       30.08R
FT SMITH       SUNNY     74  59  59 SW3       30.05R
LITTLE ROCK    CLOUDY    76  64  66 NW9       30.04R

......OKLAHOMA.......

CITY           SKY/WX    TMP DP  RH WIND       PRES   REMARKS
TULSA          PTSUNNY   79  59  50 W8        30.02R
PONCA CITY     SUNNY     75  50  41 VRB3      30.05S
MCALESTER        N/A    N/A N/A N/A MISG      30.07R
OKLAHOMA CITY  PTSUNNY   77  47  34 SW9       30.08R

......IOWA............

CITY           SKY/WX    TMP DP  RH WIND       PRES   REMARKS
DES MOINES     MOSUNNY   70  43  37 NW13      29.93R
QUAD CITIES    CLOUDY    69  48  47 W10       29.87S

......ILLINOIS........

CITY           SKY/WX    TMP DP  RH WIND       PRES   REMARKS
QUINCY         SUNNY     70  50  49 NW10      29.92R
CHICAGO        MOSUNNY   72  45  37 W15G22    29.81R



USA.gov is the U.S. government's official web portal to all federal, state and local government web resources and services.